Location: Newark
(59.8814°N, 10.8258°E)
Time: 01:16:21
(UTC+00:00)

Envisat - Pass Details

Date: 29 January 2020
Orbit: 764 x 766 km, 98.1° (Epoch: 21 February)

Event Time Altitude Azimuth Distance (km) Brightness Sun altitude
Rises 16:42:56 0° 164° (SSE) 3,227 6.3 -9.8°
Reaches altitude 10° 16:45:14 10° 165° (SSE) 2,304 5.5 -10.0°
Maximum altitude 16:50:20 81° 253° (WSW) 783 3.1 -10.6°
Drops below altitude 10° 16:55:28 10° 342° (NNW) 2,319 5.5 -11.3°
Sets 16:57:47 0° 343° (NNW) 3,249 6.3 -11.5°
